Weather in Zaluch'ye

Russia / Tver Oblast     57°12′01″N   33°08′44″E
temp.,
°C
wind,
m/s
gust,
m/s
humid.,
%
clouds,
%
prec.,
mm/h
press.,
hPa
HPBL,
m
11 may, tue
tue1100:00+7sse227277 0.0 102739
03:00+6sse2475100 0.0 102869
06:00+7sse2375100 0.0 102872
09:00+14se34506 0.0 1028452
12:00+18se343799 0.0 10271058
15:00+20ese343420 0.0 10261280
18:00+18ese354265 0.0 10261020
21:00+11ese386892 0.0 1026134
12 may, wed
wed1200:00+9se29785 0.0 1026159
03:00+8se24860 0.0 102769
06:00+10ese23870 0.0 102789
09:00+16se35705 0.0 1026586
12:00+21se475125 0.0 10251680
15:00+22ese4643100 0.0 10222320
18:00+20e4857100 0.0 10201399
21:00+15e51385100 2.3 1019601
13 may, thu
thu1300:00+13e41292100 0.7 1018600
03:00+12se599269 1.0 1018759
06:00+8se39945 0.0 1019372
09:00+13se48665 0.0 1019716
12:00+17ese584731 0.0 10171658
15:00+16ese4863100 0.3 10151294
18:00+13sse4887100 1.3 1014488
21:00+10sse3109696 1.6 1014410
14 may, fri
fri1400:00+8se289832 0.0 1015203
03:00+7se259798 0.0 101592
06:00+8se389590 0.0 1015223
09:00+13se4775100 0.0 1015493
12:00+17sse5750100 0.0 10141278
15:00+20se474997 0.0 10121941
18:00+17ese487232 0.1 1011852
21:00+13e3119411 0.5 1009346
15 may, sat
sat1500:00+12ese399948 0.0 1008256
03:00+13sse4796100 0.0 1008316
06:00+13s2594100 0.0 1008233
09:00+17s247777 0.0 1007493
12:00+21s3557100 0.3 10061507
15:00+19ssw2269100 2.1 1005903
18:00+17s2381100 3.4 100454
21:00+13se1197100 7.7 100421